Weather in Kotelnikovo

Russia / Kostroma Oblast     58°06′44″N   42°52′59″E
temp.,
°C
wind,
m/s
gust,
m/s
humid.,
%
clouds,
%
prec.,
mm/h
press.,
hPa
HPBL,
m
13 april, tue
tue1300:00+5se41296100 0.0 1034433
03:00+5se31098100 0.0 1033366
06:00+5se3998100 0.0 1031375
09:00+9sse4787100 0.0 1030348
12:00+13s4870100 0.0 1029506
15:00+15s41071100 0.0 1027613
18:00+13s31071100 0.0 1026292
21:00+9s31181100 0.0 1026189
14 april, wed
wed1400:00+7s3118360 0.0 1026188
03:00+6s398490 0.0 1026143
06:00+6s288414 0.0 1025140
09:00+12s4862100 0.0 1024304
12:00+15s485094 0.0 1023686
15:00+16s574771 0.0 10221036
18:00+14s3958100 0.0 1021310
21:00+10s2870100 0.0 1021131
15 april, thu
thu1500:00+8ssw2373100 0.0 102054
03:00+7sw2277100 0.0 102015
06:00+7ssw1177100 0.0 102010
09:00+13sse005810 0.0 1020253
12:00+17n014416 0.0 1019822
15:00+17n3245100 0.0 10191791
18:00+10nne51075100 0.0 1021473
21:00+7ne5118195 0.0 1022559
16 april, fri
fri1600:00+6ne51184100 0.0 1023573
03:00+5ne41081100 0.0 1023545
06:00+4ne4982100 0.0 1024578
09:00+6ne476546 0.0 1025678
12:00+10ne46385 0.0 10251262
15:00+11ne463225 0.0 10251548
18:00+9nne474226 0.0 1026687
21:00+5nne3106145 0.0 1028250
17 april, sat
sat1700:00+3nne310695 0.0 1029242
03:00+1nne39742 0.0 1030199
06:00+1nne310762 0.0 1031337
09:00+5ne574978 0.0 1032962
12:00+7ne57315 0.0 10331549
15:00+8ne46303 0.0 10331724
18:00+7nne3740100 0.0 1033483
21:00+3nne236065 0.0 103460